Powrót do katalogu

HULIANWANG DIGUI-04

AktywnyŁącznośćPO
NORAD 62326·PAYLOAD·🇨🇳 China

Wystrzelony Dec 16, 2024 z Wenchang Space Launch Site

Loading…

Następne Przeloty (najbliższe 24 godziny)

TLE

ŚwieżeSource: Space-Track

Epoka: Sep 14, 2026, 21:15 UTC

1 62326U 24240D   26257.88559131  .00000045  00000-0  70389-4 0  9993
2 62326  86.4986 312.9284 0001607  88.8782 271.2536 13.24412957 84518

Śledź HULIANWANG DIGUI-04 w czasie rzeczywistym z AllMySat

Download on the App Store